Wind_Speed
22 22 23 23 23 23 23 23 23 23 22 21 21 19 17 17 16 16 17 18 20 22 24 26 28 31 33 35 37 39 41 43 43 42 42 43 43 43 43 44 43 43 42
21 22 22 22 22 23 23 23 24 23 23 23 22 21 20 19 18 18 18 19 21 23 24 26 28 30 32 34 35 37 39 41 42 43 44 44 44 44 43 44 44 43 43
20 21 21 22 22 22 23 23 24 24 24 24 23 22 22 21 20 20 20 20 21 23 24 25 27 29 31 33 34 36 38 39 40 42 43 45 45 45 44 44 45 43 44
20 21 21 21 21 22 22 23 24 24 24 25 25 24 23 23 22 22 21 22 22 22 23 23 25 27 29 31 33 35 36 37 38 40 41 43 45 45 45 45 44 44 44
21 21 21 21 22 22 23 23 24 24 24 25 25 25 25 25 25 24 24 23 22 21 21 21 22 24 26 28 31 33 34 35 37 38 39 41 42 44 44 44 44 44 44
21 21 21 22 22 22 22 23 24 24 24 25 25 26 26 26 26 26 25 24 22 21 20 20 20 20 22 24 27 29 31 33 34 35 37 38 40 41 43 43 43 43 43
21 21 22 22 22 22 23 23 24 24 25 25 25 26 27 27 28 27 26 24 23 21 20 19 18 17 18 20 22 25 27 30 32 33 34 36 37 38 40 41 42 42 42
22 22 22 22 23 23 23 23 24 24 25 25 25 26 27 27 28 28 27 25 23 22 20 19 17 15 15 15 18 21 23 26 28 30 32 34 35 36 38 39 39 40 40
23 23 23 23 23 23 23 24 24 24 25 25 26 26 26 27 27 27 27 25 24 23 21 19 17 15 13 12 13 15 18 21 23 26 29 31 33 34 36 37 38 39 40
25 25 25 25 25 25 24 24 24 25 25 25 25 26 26 26 26 26 26 25 24 23 22 20 17 15 13 11 10 11 12 15 18 21 24 26 29 32 34 35 36 37 38
26 26 26 26 26 26 26 26 26 25 25 25 25 26 26 26 26 26 25 25 24 23 22 21 19 16 13 11 10 9 9 11 13 15 19 22 25 28 31 33 34 36 36
28 28 28 28 28 27 27 27 27 26 26 26 26 26 26 25 25 25 24 24 24 23 22 20 19 17 14 12 11 10 9 9 11 12 15 18 22 25 27 29 31 33 33
30 30 30 29 29 29 28 28 27 27 27 26 26 26 25 25 25 25 24 24 24 23 22 20 19 17 15 13 12 11 11 10 10 11 13 14 18 21 24 26 28 29 31
32 32 31 31 30 30 29 29 29 29 28 27 27 26 26 25 25 24 24 23 23 22 22 21 19 17 16 14 13 12 12 12 11 11 12 13 15 18 20 23 25 27 28
34 33 33 32 32 31 31 31 30 30 30 29 28 28 27 26 26 25 24 23 23 22 21 20 19 18 17 15 14 13 12 12 11 11 11 12 13 15 17 19 21 24 25
34 33 33 33 32 32 31 31 31 31 31 31 31 30 29 28 27 26 25 24 23 23 22 21 20 19 18 16 15 14 13 12 12 12 12 12 13 14 16 17 18 19 22
35 33 33 32 32 32 32 31 30 30 31 31 32 32 31 30 29 28 27 26 25 23 22 21 21 20 19 18 16 15 14 13 12 12 12 12 12 12 13 15 16 17 19
35 33 32 31 31 31 31 31 31 31 30 30 31 32 32 32 31 30 29 28 27 25 24 23 22 21 20 19 18 17 16 15 14 13 13 12 12 13 14 15 16 16 17
33 32 31 31 31 31 31 31 32 32 32 32 32 32 32 33 33 33 32 31 30 29 27 26 24 23 22 20 19 18 18 17 16 14 14 14 14 13 13 14 15 15 16
33 32 32 32 32 32 32 32 33 33 33 33 34 34 34 34 34 34 35 34 34 33 31 29 28 26 25 24 22 21 20 19 18 17 16 15 15 15 15 15 16 16 16
34 34 33 33 33 34 34 35 35 35 35 36 36 37 37 37 37 37 37 37 37 37 36 34 32 31 30 28 26 25 24 22 21 20 19 18 17 17 17 17 17 18 19
35 35 35 36 36 36 36 37 37 38 38 39 39 39 40 41 41 41 41 40 40 40 39 38 37 36 35 33 31 30 28 27 25 24 23 22 20 19 19 19 19 20 21
37 37 38 38 38 39 39 39 40 40 41 41 42 42 42 43 43 44 44 44 44 44 44 43 42 40 40 39 37 35 33 31 30 28 27 25 24 23 22 21 21 21 21
39 39 40 40 41 41 42 43 43 44 44 44 45 45 46 46 46 47 47 47 47 47 48 48 47 46 45 44 43 41 39 37 35 34 32 30 29 27 26 25 24 24 24
41 41 42 43 43 44 45 46 46 47 47 48 49 49 50 50 51 51 51 51 51 51 51 51 52 51 51 49 48 47 45 44 42 39 37 36 34 32 31 29 28 27 27
43 44 45 45 46 47 48 49 49 50 51 52 53 54 54 55 55 55 55 54 54 54 54 54 55 55 55 54 53 52 51 50 48 46 44 41 39 37 35 34 32 31 30
Wind_Direction
15 15 15 14 14 14 13 13 11 10 7 4 0 354 345 336 328 319 309 300 291 284 277 270 264 258 253 250 247 246 245 244 244 243 242 241 240 240 239 239 242 241 240
7 8 8 9 9 8 8 8 8 7 6 3 360 356 350 342 334 326 316 307 299 292 284 276 268 262 256 252 248 246 245 244 244 243 243 242 242 241 240 240 241 241 240
0 1 1 2 2 3 3 3 3 3 2 2 0 357 353 347 340 333 323 314 306 299 291 281 273 265 259 254 250 248 245 244 243 242 242 242 241 241 241 241 240 241 242
354 354 355 356 357 357 358 359 359 359 359 358 358 356 353 349 344 338 330 322 315 307 298 288 278 270 263 257 253 250 247 245 244 243 241 241 241 240 241 241 240 242 242
348 349 350 351 352 353 354 355 356 356 356 356 356 355 352 350 347 342 337 330 324 316 309 298 287 277 268 260 255 252 248 246 245 243 242 241 241 241 240 241 241 242 242
342 344 345 346 348 348 349 351 352 353 354 354 354 354 353 352 350 347 343 339 333 327 320 311 298 286 274 265 259 254 250 246 244 243 242 241 241 241 240 240 240 241 241
339 340 341 342 344 345 346 347 349 350 351 351 352 353 353 353 352 351 348 345 341 336 331 324 312 299 284 271 263 256 251 248 246 244 242 241 241 241 239 238 239 239 239
336 336 337 339 340 342 343 344 346 347 348 349 350 352 353 354 354 354 353 351 348 345 341 337 328 314 298 284 270 260 255 250 247 245 243 241 239 240 240 239 239 238 238
333 334 335 336 337 338 339 341 342 344 346 347 348 350 351 352 354 355 356 355 354 352 350 347 341 331 318 302 284 268 258 251 248 247 244 241 239 238 239 240 240 240 239
329 330 331 332 333 334 335 336 338 339 341 344 345 347 348 350 352 354 355 356 355 355 354 352 347 341 333 322 303 283 265 253 250 249 245 241 239 238 238 239 239 240 241
325 326 326 327 328 329 330 332 333 335 336 338 341 343 344 346 348 350 353 355 355 354 354 354 352 348 342 333 323 308 282 263 257 253 249 244 240 240 238 237 238 239 241
321 322 322 322 323 323 324 325 327 329 331 333 335 337 339 341 343 346 348 350 352 352 352 352 352 349 344 336 327 320 305 283 270 265 254 245 240 240 240 239 238 239 239
316 316 316 317 317 318 319 319 321 322 324 326 328 330 333 335 338 340 342 345 347 349 349 348 348 347 343 337 328 319 313 303 289 276 265 252 244 241 238 238 237 237 237
312 312 312 312 312 313 313 313 314 316 318 320 322 324 326 328 331 334 336 338 340 342 343 344 343 343 340 335 328 321 315 309 301 287 274 262 252 247 242 239 237 236 237
308 308 308 308 309 310 310 311 311 312 313 315 316 318 320 321 324 326 329 332 333 335 336 337 337 336 334 330 325 321 315 309 303 295 284 272 263 254 248 244 240 239 237
306 306 306 306 306 307 307 308 309 309 309 310 311 313 314 316 317 318 321 323 326 328 329 330 330 330 329 326 324 320 315 309 301 293 285 280 273 264 256 250 243 240 238
306 305 305 304 304 305 305 306 306 306 306 306 306 307 309 310 311 312 312 313 315 318 319 321 322 323 322 321 318 316 313 308 301 294 288 281 277 268 258 254 249 245 241
305 305 304 303 303 304 304 305 305 305 304 303 303 303 304 305 306 306 306 306 306 307 309 310 311 312 313 312 311 309 307 303 298 292 287 281 275 269 259 253 250 246 239
303 303 303 303 303 303 303 303 304 304 304 303 302 301 301 302 302 302 302 301 301 300 300 300 301 301 301 302 301 300 299 297 293 287 283 279 274 269 261 255 251 246 237
301 301 301 301 301 302 302 303 303 303 303 303 303 302 301 301 300 299 298 297 296 295 294 293 292 292 291 291 290 290 289 288 285 282 279 276 272 267 261 255 251 247 241
299 300 300 300 300 300 301 301 302 302 302 302 301 301 301 300 299 298 296 294 293 292 290 289 287 285 284 283 282 281 280 278 277 275 274 272 268 263 258 253 249 246 243
297 298 298 299 299 299 300 300 301 301 301 301 300 300 300 299 299 297 296 293 291 289 287 285 283 280 277 276 275 274 272 271 270 268 266 266 265 261 255 250 248 246 243
296 297 298 298 298 299 299 300 300 300 300 300 300 299 298 298 297 296 294 292 290 288 285 283 280 277 274 270 269 268 266 264 263 262 261 259 258 256 253 249 247 245 243
295 297 298 298 299 299 300 300 300 300 300 300 299 299 298 297 296 295 293 291 289 286 284 281 278 274 271 268 264 262 260 259 257 256 255 254 252 250 249 248 246 244 243
296 297 298 298 299 300 300 300 300 300 300 300 300 299 299 298 297 295 293 291 288 285 282 278 275 272 268 265 262 259 257 255 252 251 250 249 248 247 246 246 245 243 241
296 297 298 299 300 301 301 301 301 301 301 301 301 300 300 299 298 297 294 292 288 285 281 277 274 270 267 263 259 256 254 252 250 247 246 245 244 243 242 242 242 242 240
Height
5820 5816 5812 5808 5804 5800 5796 5792 5788 5784 5780 5776 5772 5769 5765 5762 5760 5757 5755 5753 5752 5750 5750 5750 5750 5751 5753 5755 5758 5762 5765 5769 5774 5779 5783 5787 5792 5796 5801 5805 5810 5814 5818
5820 5817 5813 5809 5805 5801 5797 5793 5788 5784 5780 5775 5771 5767 5763 5760 5756 5754 5751 5748 5746 5744 5742 5741 5741 5741 5743 5745 5748 5751 5754 5758 5762 5767 5772 5776 5780 5785 5790 5795 5799 5804 5808
5820 5817 5813 5809 5805 5801 5797 5792 5788 5784 5779 5775 5770 5766 5761 5757 5753 5750 5746 5743 5739 5737 5734 5732 5731 5731 5732 5734 5737 5740 5743 5746 5750 5755 5760 5764 5769 5774 5779 5783 5788 5793 5798
5820 5816 5812 5808 5804 5800 5796 5792 5787 5783 5778 5774 5769 5764 5759 5755 5750 5746 5741 5737 5733 5729 5726 5723 5722 5722 5722 5724 5726 5729 5732 5736 5739 5744 5748 5753 5757 5762 5767 5773 5777 5782 5787
5819 5815 5811 5807 5803 5799 5795 5791 5786 5782 5777 5773 5768 5763 5757 5752 5747 5742 5737 5732 5727 5723 5719 5716 5714 5713 5713 5714 5716 5719 5722 5725 5729 5733 5737 5742 5746 5751 5756 5761 5766 5771 5776
5817 5813 5809 5805 5802 5798 5793 5789 5785 5781 5776 5771 5766 5761 5756 5750 5744 5738 5732 5727 5722 5718 5714 5711 5708 5706 5705 5705 5706 5709 5712 5715 5719 5723 5727 5731 5735 5740 5745 5750 5755 5761 5766
5815 5811 5807 5804 5800 5796 5792 5788 5783 5779 5774 5770 5765 5760 5754 5748 5742 5736 5729 5724 5719 5714 5710 5706 5703 5700 5698 5698 5699 5701 5703 5706 5710 5713 5717 5721 5726 5730 5735 5740 5744 5749 5755
5812 5809 5805 5801 5798 5794 5790 5786 5782 5777 5773 5768 5763 5758 5753 5747 5741 5734 5728 5722 5717 5712 5708 5703 5700 5697 5695 5693 5693 5694 5696 5698 5701 5705 5709 5712 5716 5720 5724 5729 5733 5738 5743
5810 5806 5803 5799 5795 5792 5788 5784 5779 5775 5771 5766 5761 5756 5751 5746 5740 5734 5728 5722 5717 5712 5707 5702 5698 5695 5693 5691 5690 5690 5691 5692 5694 5697 5700 5703 5707 5711 5715 5720 5724 5728 5733
5806 5803 5799 5796 5792 5789 5785 5781 5777 5773 5768 5764 5759 5755 5750 5745 5739 5734 5728 5722 5717 5712 5707 5702 5698 5695 5692 5690 5688 5687 5687 5688 5689 5691 5693 5696 5699 5703 5706 5710 5715 5719 5723
5803 5799 5796 5792 5789 5785 5781 5777 5774 5770 5766 5762 5757 5753 5748 5743 5738 5733 5727 5722 5717 5712 5707 5703 5699 5695 5692 5689 5687 5686 5685 5685 5685 5686 5688 5690 5692 5696 5699 5702 5706 5710 5714
5798 5795 5791 5788 5784 5781 5777 5774 5770 5766 5762 5758 5754 5750 5746 5741 5736 5731 5727 5722 5717 5712 5707 5703 5699 5695 5692 5689 5687 5685 5684 5683 5683 5683 5684 5685 5687 5689 5692 5695 5698 5702 5706
5793 5790 5786 5783 5779 5776 5772 5769 5765 5762 5758 5755 5751 5747 5743 5738 5734 5730 5725 5720 5716 5711 5707 5703 5699 5695 5692 5689 5686 5685 5683 5682 5681 5680 5680 5680 5682 5684 5686 5688 5691 5694 5698
5787 5783 5780 5777 5774 5770 5767 5764 5760 5756 5753 5750 5746 5743 5739 5735 5731 5727 5723 5719 5715 5710 5706 5702 5698 5694 5691 5688 5686 5683 5681 5680 5679 5678 5677 5677 5678 5679 5680 5682 5685 5687 5691
5780 5776 5773 5770 5766 5763 5760 5757 5753 5750 5746 5744 5740 5737 5734 5731 5727 5723 5720 5716 5713 5709 5705 5701 5697 5694 5690 5687 5685 5682 5680 5678 5676 5676 5675 5675 5675 5675 5676 5677 5679 5681 5684
5772 5768 5765 5762 5759 5756 5753 5750 5747 5743 5740 5737 5733 5731 5728 5725 5722 5719 5715 5712 5709 5706 5702 5699 5695 5692 5689 5686 5683 5680 5678 5676 5674 5673 5672 5672 5672 5672 5672 5673 5674 5676 5678
5763 5760 5757 5754 5751 5748 5745 5742 5740 5737 5734 5730 5727 5724 5721 5718 5716 5713 5710 5708 5705 5702 5699 5696 5692 5689 5686 5683 5680 5678 5676 5674 5672 5670 5669 5669 5668 5668 5668 5669 5670 5671 5672
5754 5752 5749 5746 5743 5740 5737 5734 5732 5729 5727 5724 5720 5717 5714 5711 5709 5706 5704 5702 5699 5696 5694 5691 5688 5685 5683 5680 5677 5675 5673 5671 5669 5668 5666 5666 5665 5665 5665 5665 5666 5667 5668
5746 5743 5741 5738 5735 5733 5730 5727 5724 5721 5718 5716 5713 5710 5707 5704 5701 5699 5696 5694 5692 5690 5688 5686 5683 5681 5678 5676 5673 5671 5669 5667 5665 5664 5663 5662 5662 5661 5661 5661 5662 5663 5664
5737 5735 5732 5730 5727 5724 5721 5718 5715 5712 5709 5707 5704 5700 5698 5696 5693 5690 5688 5685 5683 5681 5680 5678 5676 5674 5672 5670 5668 5666 5664 5663 5661 5660 5659 5658 5658 5657 5657 5657 5658 5659 5660
5729 5726 5723 5721 5718 5715 5712 5709 5706 5703 5700 5697 5694 5691 5688 5685 5683 5681 5678 5676 5674 5672 5670 5668 5667 5666 5664 5663 5661 5660 5658 5657 5656 5655 5654 5653 5653 5653 5653 5653 5654 5655 5656
5719 5717 5714 5711 5708 5705 5702 5699 5696 5693 5690 5687 5684 5681 5677 5674 5672 5669 5667 5665 5663 5661 5659 5658 5657 5656 5654 5653 5652 5651 5650 5650 5649 5648 5648 5647 5647 5647 5647 5648 5648 5650 5651
5709 5706 5704 5701 5698 5695 5691 5688 5685 5682 5679 5675 5672 5669 5666 5663 5659 5656 5654 5651 5649 5647 5645 5644 5643 5642 5642 5641 5641 5641 5640 5640 5640 5639 5639 5640 5640 5640 5641 5642 5643 5644 5645
5698 5695 5692 5689 5686 5683 5680 5676 5673 5669 5666 5662 5659 5655 5652 5649 5645 5642 5639 5636 5634 5631 5629 5628 5627 5627 5626 5626 5627 5627 5627 5628 5628 5629 5629 5630 5631 5632 5633 5634 5635 5637 5638
5686 5683 5680 5677 5674 5670 5667 5663 5659 5655 5652 5648 5644 5640 5636 5633 5629 5625 5622 5619 5616 5614 5612 5610 5608 5608 5608 5608 5609 5611 5612 5613 5614 5616 5617 5618 5620 5622 5623 5625 5627 5628 5630
5674 5671 5667 5664 5660 5656 5652 5648 5644 5640 5636 5631 5627 5623 5618 5614 5610 5606 5602 5599 5596 5593 5591 5589 5587 5587 5587 5588 5589 5591 5594 5596 5597 5599 5602 5605 5607 5610 5612 5614 5616 5618 5621